Weather History for Berlin, NH

Change the Weather History Date:

Sunday, January 13, 2013

  Actual Average Record
Temperature  
Mean Temperature 39 °F -  
Max Temperature 46 °F 20 °F 55 °F (2005)
Min Temperature 32 °F 0 °F -20 °F (1999)
Degree Days  
Heating Degree Days 26    
Moisture  
Dew Point 33 °F    
Average Humidity 91    
Maximum Humidity 96    
Minimum Humidity 76    
Precipitation  
Precipitation 0.00 in - - ()
Sea Level Pressure  
Sea Level Pressure 30.03 in    
Wind  
Wind Speed 0 mph (South)    
Max Wind Speed 6 mph    
Max Gust Speed -    
Visibility 5 miles    
Events Fog    
Averages and records for this station are not official NWS values.
T = Trace of Precipitation, MM = Missing Value Source: NWS Daily Summary

Daily Weather History Graph

Daily Weather History Graph

Search for Another Location

Airport:

Trip Planner

Search our weather history database for the weather conditions in past years. The results will help you decide how hot, cold, wet, or windy it might be!

Date:

Astronomy

Jan. 13, 2013 Rise Set
Actual Time 7:18 AM EST 4:28 PM EST
Civil Twilight 6:46 AM EST 5:01 PM EST
Nautical Twilight 6:10 AM EST 5:37 PM EST
Astronomical Twilight 5:35 AM EST 6:12 PM EST
Moon 8:08 AM EST (1/13) 7:11 PM EST (1/13)
Length of Visible Light 10h 14m
Length of Day
9h 09m
Waxing Crescent, 5% of the Moon is Illuminated
Jan 13
Waxing Crescent
Jan 18
First Quarter
Jan 26
Full
Feb 3
Last Quarter
Feb 10
New

Hourly Weather History & Observations

Time (EST) Temp. Windchill Dew Point Humidity Pressure Visibility Wind Dir Wind Speed Gust Speed Precip Events Conditions
12:25 AM 33.8 °F - 30.2 °F 87% 30.06 in 0.5 mi Calm Calm - N/A Fog Fog
12:52 AM 33.1 °F - 32.0 °F 96% 30.12 in 0.5 mi Calm Calm - N/A Fog Fog
1:03 AM 33.8 °F - 30.2 °F 87% 30.07 in 0.2 mi Calm Calm - N/A Fog Fog
1:52 AM 33.1 °F - 32.0 °F 96% 30.12 in 0.2 mi Calm Calm - N/A Fog Fog
2:29 AM 33.8 °F - 30.2 °F 87% 30.10 in 0.5 mi Calm Calm - N/A Fog Fog
2:52 AM 32.0 °F - 30.9 °F 96% 30.14 in 0.5 mi Calm Calm - N/A Fog Fog
3:01 AM 32.0 °F - 30.2 °F 93% 30.10 in 0.2 mi Calm Calm - N/A Fog Fog
3:52 AM 33.1 °F - 32.0 °F 96% 30.13 in 0.2 mi Calm Calm - N/A Fog Fog
4:52 AM 33.1 °F - 32.0 °F 96% 30.12 in 0.2 mi Calm Calm - N/A Fog Fog
5:52 AM 33.1 °F - 30.9 °F 92% 30.08 in 0.5 mi Calm Calm - N/A Fog Fog
6:14 AM 33.8 °F 28.6 °F 30.2 °F 87% 30.09 in 1.5 mi WSW 5.8 mph - N/A   Overcast
6:18 AM 33.8 °F - 32.0 °F 93% 30.08 in 3.0 mi Calm Calm - N/A   Overcast
6:36 AM 33.8 °F 29.6 °F 30.2 °F 87% 30.07 in 9.0 mi East 4.6 mph - N/A   Overcast
6:52 AM 33.1 °F - 32.0 °F 96% 30.11 in 10.0 mi Calm Calm - N/A   Overcast
7:40 AM 33.8 °F - 30.2 °F 87% 30.07 in 3.0 mi Calm Calm - N/A   Mostly Cloudy
7:44 AM 33.8 °F - 32.0 °F 93% 30.07 in 1.8 mi Calm Calm - N/A   Mostly Cloudy
7:52 AM 33.1 °F - 30.9 °F 92% 30.12 in 1.0 mi Calm Calm - N/A   Overcast
7:59 AM 33.8 °F - 32.0 °F 93% 30.07 in 0.5 mi Calm Calm - N/A Fog Fog
8:52 AM 33.1 °F - 32.0 °F 96% 30.12 in 0.2 mi Calm Calm - N/A Fog Fog
9:52 AM 33.1 °F - 32.0 °F 96% 30.12 in 0.2 mi Calm Calm - N/A Fog Fog
10:52 AM 34.0 °F - 33.1 °F 96% 30.08 in 0.2 mi Calm Calm - N/A Fog Fog
11:15 AM 35.6 °F - 33.8 °F 93% 30.02 in 1.0 mi Calm Calm - N/A   Overcast
11:29 AM 35.6 °F - 33.8 °F 93% 30.02 in 0.2 mi Calm Calm - N/A Fog Fog
12:06 PM 37.4 °F - 35.6 °F 93% 29.99 in 2.5 mi Calm Calm - N/A   Overcast
12:13 PM 37.4 °F - 35.6 °F 93% 29.98 in 5.0 mi Calm Calm - N/A   Overcast
12:25 PM 37.4 °F - 35.6 °F 93% 29.97 in 4.0 mi Calm Calm - N/A   Mostly Cloudy
12:52 PM 37.9 °F - 36.0 °F 93% 30.01 in 10.0 mi Calm Calm - N/A   Scattered Clouds
1:52 PM 43.0 °F 41.3 °F 37.0 °F 80% 29.96 in 10.0 mi SW 3.5 mph - 0.00 in   Scattered Clouds
2:52 PM 46.0 °F - 39.0 °F 76% 29.93 in 10.0 mi Calm Calm - N/A   Partly Cloudy
3:52 PM 43.0 °F - 37.0 °F 80% 29.91 in 10.0 mi Calm Calm - N/A   Clear
4:52 PM 37.0 °F - 34.0 °F 89% 29.94 in 10.0 mi Calm Calm - N/A   Partly Cloudy
5:52 PM 37.9 °F 35.5 °F 34.0 °F 86% 29.96 in 10.0 mi South 3.5 mph - N/A   Overcast
6:30 PM 41.0 °F 38.0 °F 35.6 °F 81% 29.92 in 10.0 mi SSE 4.6 mph - N/A   Overcast
6:52 PM 39.9 °F - 36.0 °F 86% 29.96 in 10.0 mi Calm Calm - N/A   Overcast
7:52 PM 37.9 °F - 35.1 °F 89% 29.96 in 10.0 mi Calm Calm - N/A   Overcast
8:52 PM 37.9 °F - 35.1 °F 89% 29.95 in 10.0 mi Calm Calm - N/A   Overcast
9:15 PM 37.4 °F - 35.6 °F 93% 29.92 in 10.0 mi Calm Calm - N/A   Overcast
9:52 PM 36.0 °F - 34.0 °F 93% 29.94 in 10.0 mi Calm Calm - N/A   Mostly Cloudy
10:52 PM 33.1 °F - 30.9 °F 92% 29.94 in 10.0 mi Calm Calm - N/A   Partly Cloudy
11:19 PM 35.6 °F - 33.8 °F 93% 29.90 in 6.0 mi Calm Calm - N/A   Mostly Cloudy
11:49 PM 35.6 °F - 33.8 °F 93% 29.90 in 5.0 mi Calm Calm - N/A   Overcast
11:52 PM 35.1 °F - 33.1 °F 92% 29.95 in 5.0 mi Calm Calm - N/A   Overcast